1998-067PT

Last updated on Dec. 14, 2018, 12:02 a.m. UTC

1 43848U 98067PT  18346.86901084  .08036764  00000-0  56031-1 0  9995
2 43848  51.6334 208.2347 0025116 100.0374   1.1369 15.68944317   140

Satellite is not in orbit.